Time,TemperatureF,DewpointF,PressureIn,WindDirection,WindDirectionDegrees,WindSpeedMPH,WindSpeedGustMPH,Humidity,HourlyPrecipIn,Conditions,Clouds,dailyrainin,SoftwareType,DateUTC
2013-01-28 18:19:00,73.3,64.2,30.28,ESE,113,0.9,0.9,73,0.00,,,0.00,WUHU216HW,2013-01-28 23:19:00,
2013-01-28 18:24:00,74.0,64.1,30.28,ESE,113,0.0,1.3,71,0.00,,,0.00,WUHU216HW,2013-01-28 23:24:00,
2013-01-28 18:29:00,71.6,62.6,30.28,ESE,113,0.4,1.3,73,0.00,,,0.00,WUHU216HW,2013-01-28 23:29:00,
2013-01-28 18:34:00,70.2,61.8,30.28,ESE,113,0.4,1.3,75,0.00,,,0.00,WUHU216HW,2013-01-28 23:34:00,
2013-01-28 18:39:00,69.3,61.4,30.28,ESE,113,0.4,1.3,76,0.00,,,0.00,WUHU216HW,2013-01-28 23:39:00,
2013-01-28 18:44:00,68.4,60.9,30.28,ESE,113,0.4,0.9,77,0.00,,,0.00,WUHU216HW,2013-01-28 23:44:00,
2013-01-28 18:49:00,68.0,61.0,30.28,ESE,113,0.4,2.5,78,0.00,,,0.00,WUHU216HW,2013-01-28 23:49:00,
2013-01-28 18:54:00,67.7,61.0,30.28,ESE,113,0.2,2.5,79,0.00,,,0.00,WUHU216HW,2013-01-28 23:54:00,
2013-01-28 18:59:00,67.3,61.0,30.28,SE,135,0.7,1.8,80,0.00,,,0.00,WUHU216HW,2013-01-28 23:59:00,
2013-01-28 19:04:00,67.1,60.8,30.28,ESE,113,0.0,1.3,80,0.00,,,0.00,WUHU216HW,2013-01-29 00:04:00,
2013-01-28 19:09:00,67.0,60.7,30.28,ESE,113,0.0,1.3,80,0.00,,,0.00,WUHU216HW,2013-01-29 00:09:00,
2013-01-28 19:14:00,66.8,60.5,30.28,ESE,113,0.0,0.0,80,0.00,,,0.00,WUHU216HW,2013-01-29 00:14:00,
2013-01-28 19:19:00,66.8,60.5,30.28,ESE,113,0.0,0.0,80,0.00,,,0.00,WUHU216HW,2013-01-29 00:19:00,
2013-01-28 19:24:00,66.6,60.3,30.28,ESE,113,0.0,0.2,80,0.00,,,0.00,WUHU216HW,2013-01-29 00:24:00,
2013-01-28 19:29:00,66.4,60.5,30.28,ESE,113,0.0,0.2,81,0.00,,,0.00,WUHU216HW,2013-01-29 00:29:00,
2013-01-28 19:34:00,66.2,60.3,30.28,ESE,113,0.0,0.0,81,0.00,,,0.00,WUHU216HW,2013-01-29 00:34:00,
2013-01-28 19:39:00,66.1,60.1,30.28,ESE,113,0.0,0.0,81,0.00,,,0.00,WUHU216HW,2013-01-29 00:39:00,
2013-01-28 19:44:00,65.9,60.0,30.28,ESE,113,0.0,0.0,81,0.00,,,0.00,WUHU216HW,2013-01-29 00:44:00,
2013-01-28 19:49:00,65.9,60.0,30.28,ESE,113,0.0,0.0,81,0.00,,,0.00,WUHU216HW,2013-01-29 00:49:00,
2013-01-28 19:54:00,65.7,59.8,30.28,ESE,113,0.0,0.0,81,0.00,,,0.00,WUHU216HW,2013-01-29 00:54:00,
2013-01-28 19:59:00,65.2,59.2,30.28,ESE,113,0.0,0.0,81,0.00,,,0.00,WUHU216HW,2013-01-29 00:59:00,
2013-01-28 20:04:00,65.0,59.3,30.28,ESE,113,0.0,0.0,82,0.00,,,0.00,WUHU216HW,2013-01-29 01:04:00,
2013-01-28 20:09:00,65.0,59.3,30.28,ESE,113,0.2,0.2,82,0.00,,,0.00,WUHU216HW,2013-01-29 01:09:00,
2013-01-28 20:14:00,64.8,59.5,30.28,ESE,113,0.0,0.4,83,0.00,,,0.00,WUHU216HW,2013-01-29 01:14:00,
2013-01-28 20:19:00,64.8,59.5,30.28,ESE,113,0.0,0.4,83,0.00,,,0.00,WUHU216HW,2013-01-29 01:19:00,
2013-01-28 20:24:00,64.8,59.9,30.28,ESE,113,0.0,0.0,84,0.00,,,0.00,WUHU216HW,2013-01-29 01:24:00,
2013-01-28 20:29:00,64.8,59.9,30.28,ESE,113,0.0,0.0,84,0.00,,,0.00,WUHU216HW,2013-01-29 01:29:00,
2013-01-28 20:34:00,64.8,59.9,30.28,ESE,113,0.0,0.0,84,0.00,,,0.00,WUHU216HW,2013-01-29 01:34:00,
2013-01-28 20:39:00,64.8,59.9,30.28,ESE,113,0.0,0.0,84,0.00,,,0.00,WUHU216HW,2013-01-29 01:39:00,
2013-01-28 20:44:00,64.4,59.1,30.28,ESE,113,0.0,0.0,83,0.00,,,0.00,WUHU216HW,2013-01-29 01:44:00,
2013-01-28 20:49:00,64.4,59.1,30.29,ESE,113,0.0,0.0,83,0.00,,,0.00,WUHU216HW,2013-01-29 01:49:00,
2013-01-28 20:54:00,64.4,59.1,30.29,ESE,113,0.0,0.0,83,0.00,,,0.00,WUHU216HW,2013-01-29 01:54:00,
2013-01-28 20:59:00,64.4,59.1,30.29,ESE,113,0.0,0.0,83,0.00,,,0.00,WUHU216HW,2013-01-29 01:59:00,
2013-01-28 21:04:00,64.3,59.3,30.29,ESE,113,0.0,0.0,84,0.00,,,0.00,WUHU216HW,2013-01-29 02:04:00,
2013-01-28 21:09:00,64.3,59.3,30.29,ESE,113,0.0,0.0,84,0.00,,,0.00,WUHU216HW,2013-01-29 02:09:00,
2013-01-28 21:14:00,64.1,59.1,30.29,ESE,113,0.0,0.0,84,0.00,,,0.00,WUHU216HW,2013-01-29 02:14:00,
2013-01-28 21:19:00,64.1,59.1,30.29,ESE,113,0.0,0.0,84,0.00,,,0.00,WUHU216HW,2013-01-29 02:19:00,
2013-01-28 21:24:00,64.1,59.1,30.29,ESE,113,0.0,0.0,84,0.00,,,0.00,WUHU216HW,2013-01-29 02:24:00,
2013-01-28 21:29:00,64.1,59.1,30.29,ESE,113,0.0,0.0,84,0.00,,,0.00,WUHU216HW,2013-01-29 02:29:00,
2013-01-28 21:34:00,64.1,59.5,30.29,ESE,113,0.0,0.0,85,0.00,,,0.00,WUHU216HW,2013-01-29 02:34:00,
2013-01-28 21:39:00,64.1,59.5,30.29,ESE,113,0.0,0.0,85,0.00,,,0.00,WUHU216HW,2013-01-29 02:39:00,
2013-01-28 21:44:00,64.1,59.5,30.28,ESE,113,0.0,0.4,85,0.00,,,0.00,WUHU216HW,2013-01-29 02:44:00,
2013-01-28 21:49:00,64.1,59.5,30.28,ESE,113,0.0,0.4,85,0.00,,,0.00,WUHU216HW,2013-01-29 02:49:00,
2013-01-28 21:54:00,63.9,59.3,30.28,ESE,113,0.0,0.2,85,0.00,,,0.00,WUHU216HW,2013-01-29 02:54:00,
2013-01-28 21:59:00,63.5,59.0,30.29,NNW,338,0.0,0.0,85,0.00,,,0.00,WUHU216HW,2013-01-29 02:59:00,
2013-01-28 22:04:00,63.4,58.8,30.29,NNW,338,0.0,0.0,85,0.00,,,0.00,WUHU216HW,2013-01-29 03:04:00,
2013-01-28 22:09:00,63.4,58.8,30.29,NNW,338,0.0,0.0,85,0.00,,,0.00,WUHU216HW,2013-01-29 03:09:00,
2013-01-28 22:14:00,63.4,58.8,30.29,NNW,338,0.0,0.0,85,0.00,,,0.00,WUHU216HW,2013-01-29 03:14:00,
2013-01-28 22:19:00,63.4,59.1,30.29,NNW,338,0.0,0.0,86,0.00,,,0.00,WUHU216HW,2013-01-29 03:19:00,
2013-01-28 22:24:00,63.2,59.0,30.29,NNW,338,0.0,0.0,86,0.00,,,0.00,WUHU216HW,2013-01-29 03:24:00,
2013-01-28 22:29:00,63.0,58.8,30.29,NNW,338,0.0,0.0,86,0.00,,,0.00,WUHU216HW,2013-01-29 03:29:00,
2013-01-28 22:34:00,63.0,58.8,30.28,NNW,338,0.0,0.0,86,0.00,,,0.00,WUHU216HW,2013-01-29 03:34:00,
2013-01-28 22:39:00,63.0,58.8,30.29,NNW,338,0.0,0.0,86,0.00,,,0.00,WUHU216HW,2013-01-29 03:39:00,
2013-01-28 22:44:00,63.0,58.8,30.28,NNW,338,0.0,0.0,86,0.00,,,0.00,WUHU216HW,2013-01-29 03:44:00,
2013-01-28 22:49:00,63.0,58.8,30.28,NNW,338,0.0,0.0,86,0.00,,,0.00,WUHU216HW,2013-01-29 03:49:00,
2013-01-28 22:54:00,62.8,58.6,30.28,NNW,338,0.0,0.0,86,0.00,,,0.00,WUHU216HW,2013-01-29 03:54:00,
2013-01-28 22:59:00,62.8,58.6,30.28,NNW,338,0.0,0.0,86,0.00,,,0.00,WUHU216HW,2013-01-29 03:59:00,
2013-01-28 23:04:00,62.8,58.6,30.28,NNW,338,0.0,0.0,86,0.00,,,0.00,WUHU216HW,2013-01-29 04:04:00,
2013-01-28 23:09:00,62.8,58.6,30.28,NNW,338,0.0,0.0,86,0.00,,,0.00,WUHU216HW,2013-01-29 04:09:00,
2013-01-28 23:14:00,62.8,58.6,30.28,NNW,338,0.0,0.0,86,0.00,,,0.00,WUHU216HW,2013-01-29 04:14:00,
2013-01-28 23:19:00,62.6,58.4,30.28,NNW,338,0.0,0.0,86,0.00,,,0.00,WUHU216HW,2013-01-29 04:19:00,
2013-01-28 23:24:00,62.5,58.2,30.27,NNW,338,0.0,0.0,86,0.00,,,0.00,WUHU216HW,2013-01-29 04:24:00,
2013-01-28 23:29:00,62.3,58.1,30.27,NNW,338,0.0,0.0,86,0.00,,,0.00,WUHU216HW,2013-01-29 04:29:00,
2013-01-28 23:34:00,62.3,58.1,30.27,NNW,338,0.0,0.0,86,0.00,,,0.00,WUHU216HW,2013-01-29 04:34:00,
2013-01-28 23:39:00,62.1,57.9,30.27,NE,45,0.0,0.0,86,0.00,,,0.00,WUHU216HW,2013-01-29 04:39:00,
2013-01-28 23:44:00,61.9,57.7,30.27,NE,45,0.0,0.2,86,0.00,,,0.00,WUHU216HW,2013-01-29 04:44:00,
2013-01-28 23:49:00,61.7,57.9,30.27,ENE,68,0.0,0.2,87,0.00,,,0.00,WUHU216HW,2013-01-29 04:49:00,
2013-01-28 23:54:00,61.6,57.7,30.27,SE,135,0.0,0.9,87,0.00,,,0.00,WUHU216HW,2013-01-29 04:54:00,
2013-01-28 23:59:00,61.6,57.7,30.26,SE,135,0.4,0.9,87,0.00,,,0.00,WUHU216HW,2013-01-29 04:59:00,